Location: Brede
(50.9167°N, 0.6000°E)
Time: 19:23:16
(UTC+00:00)

COSMOS 2487 - Pass Details

Date: 08 August 2020
Orbit: 439 x 443 km, 74.7° (Epoch: 24 September)

Event Time Altitude Azimuth Distance (km) Brightness Sun altitude
Exits shadow 00:06:40 54° 348° (NNW) 545 3.0 -23.0°
Drops below altitude 10° 00:09:31 10° 18° (NNE) 1,566 6.1 -23.0°
Sets 00:11:36 0° 22° (NNE) 2,441 7.3 -23.0°
